Weather History for Morgantown, WV

Change the Weather History Date:

Sunday, December 8, 2013

  Actual Average Record
Temperature  
Mean Temperature 29 °F 37 °F  
Max Temperature 37 °F 44 °F 74 °F (1966)
Min Temperature 21 °F 29 °F 10 °F (1977)
Degree Days  
Heating Degree Days 36 28  
Month to date heating degree days 185 217  
Since 1 July heating degree days 1302 1265  
Cooling Degree Days 0 0  
Month to date cooling degree days 0 0  
Year to date cooling degree days 906 814  
Moisture  
Dew Point 24 °F    
Average Humidity 82    
Maximum Humidity 92    
Minimum Humidity 72    
Precipitation  
Precipitation 0.10 in 0.10 in 1.53 in (1978)
Month to date precipitation 2.30 0.82  
Year to date precipitation 38.84 39.74  
Sea Level Pressure  
Sea Level Pressure 30.32 in    
Wind  
Wind Speed 5 mph (ENE)    
Max Wind Speed 13 mph    
Max Gust Speed 17 mph    
Visibility 6 miles    
Events Fog , Rain , Snow    
T = Trace of Precipitation, MM = Missing Value Source: NWS Daily Summary

Daily Weather History Graph

Daily Weather History Graph

Search for Another Location

Airport:

Trip Planner

Search our weather history database for the weather conditions in past years. The results will help you decide how hot, cold, wet, or windy it might be!

Date:

Astronomy

Dec. 08, 2013 Rise Set
Actual Time 7:28 AM EST 4:55 PM EST
Civil Twilight 6:57 AM EST 5:25 PM EST
Nautical Twilight 6:24 AM EST 5:59 PM EST
Astronomical Twilight 5:51 AM EST 6:31 PM EST
Moon 11:48 AM EST (12/8) 11:41 PM EST (12/8)
Length of Visible Light 10h 27m
Length of Day
9h 27m
Waxing Crescent, 40% of the Moon is Illuminated
Dec 8
Waxing Crescent
Dec 9
First Quarter
Dec 17
Full
Dec 25
Last Quarter
Jan 1
New

Hourly Weather History & Observations

Time (EST) Temp. Windchill Dew Point Humidity Pressure Visibility Wind Dir Wind Speed Gust Speed Precip Events Conditions
12:53 AM 21.9 °F 15.7 °F 16.0 °F 78% 30.57 in 10.0 mi North 4.6 mph - N/A   Clear
1:53 AM 21.9 °F 14.5 °F 16.0 °F 78% 30.57 in 10.0 mi NNE 5.8 mph - N/A   Clear
2:53 AM 21.9 °F 17.2 °F 17.1 °F 82% 30.53 in 10.0 mi North 3.5 mph - N/A   Clear
3:53 AM 21.9 °F 17.2 °F 17.1 °F 82% 30.50 in 10.0 mi NE 3.5 mph - N/A   Clear
4:53 AM 21.9 °F - 18.0 °F 85% 30.51 in 10.0 mi Calm Calm - N/A   Partly Cloudy
5:53 AM 23.0 °F 15.8 °F 18.0 °F 81% 30.50 in 10.0 mi North 5.8 mph - N/A   Overcast
6:53 AM 23.0 °F 15.8 °F 18.0 °F 81% 30.49 in 10.0 mi North 5.8 mph - N/A   Overcast
7:53 AM 24.1 °F 19.7 °F 19.0 °F 81% 30.48 in 10.0 mi North 3.5 mph - N/A   Overcast
8:28 AM 24.8 °F 19.1 °F 19.4 °F 80% 30.41 in 2.5 mi North 4.6 mph - 0.00 in Snow Light Snow
8:36 AM 23.0 °F 14.7 °F 19.4 °F 86% 30.41 in 0.8 mi North 6.9 mph - 0.00 in Snow Light Snow
8:53 AM 23.0 °F 17.0 °F 21.0 °F 92% 30.45 in 1.0 mi NNE 4.6 mph - 0.00 in Snow Light Snow
9:29 AM 24.8 °F - 23.0 °F 93% 30.39 in 2.0 mi Calm Calm - 0.00 in Snow Light Snow
9:53 AM 26.1 °F - 23.0 °F 88% 30.44 in 3.0 mi Calm Calm - 0.00 in   Overcast
10:01 AM 26.6 °F - 24.8 °F 93% 30.39 in 2.0 mi Calm Calm - 0.00 in Snow Light Snow
10:08 AM 26.6 °F 22.6 °F 24.8 °F 93% 30.38 in 0.8 mi NNE 3.5 mph - 0.01 in Snow Light Snow
10:40 AM 26.6 °F 21.2 °F 24.8 °F 93% 30.38 in 1.0 mi North 4.6 mph - 0.02 in Snow Light Snow
10:53 AM 27.0 °F 21.6 °F 25.0 °F 92% 30.42 in 1.2 mi North 4.6 mph - 0.02 in Snow Light Snow
11:20 AM 26.6 °F 21.2 °F 24.8 °F 93% 30.36 in 0.8 mi NNE 4.6 mph - 0.02 in Snow Light Snow
11:38 AM 28.4 °F 23.3 °F 26.6 °F 93% 30.33 in 1.2 mi NNE 4.6 mph - 0.02 in Snow Light Snow
11:53 AM 28.0 °F 22.8 °F 26.1 °F 92% 30.36 in 1.0 mi East 4.6 mph - 0.03 in Snow Light Snow
12:12 PM 28.4 °F 22.2 °F 24.8 °F 86% 30.31 in 3.0 mi ENE 5.8 mph - 0.00 in Snow Light Snow
12:44 PM 28.4 °F 20.4 °F 24.8 °F 86% 30.28 in 1.8 mi East 8.1 mph - 0.01 in Snow Light Snow
12:51 PM 28.4 °F 22.2 °F 24.8 °F 86% 30.29 in 0.8 mi East 5.8 mph - 0.01 in Snow Light Snow
12:53 PM 28.9 °F 25.2 °F 25.0 °F 85% 30.34 in 0.5 mi Variable 3.5 mph - 0.02 in Fog , Snow Light Snow
1:06 PM 28.4 °F 22.2 °F 24.8 °F 86% 30.29 in 1.0 mi NNE 5.8 mph - 0.01 in Snow Light Snow
1:34 PM 28.4 °F 23.3 °F 26.6 °F 93% 30.27 in 2.0 mi Variable 4.6 mph - 0.03 in Snow Light Snow
1:37 PM 28.4 °F 23.3 °F 24.8 °F 86% 30.27 in 1.8 mi NE 4.6 mph - 0.03 in Snow Light Snow
1:46 PM 28.4 °F 22.2 °F 24.8 °F 86% 30.27 in 3.0 mi East 5.8 mph - 0.03 in Snow Light Snow
1:53 PM 28.9 °F 23.9 °F 25.0 °F 85% 30.31 in 5.0 mi East 4.6 mph - 0.03 in   Overcast
2:53 PM 30.0 °F 21.7 °F 23.0 °F 75% 30.27 in 10.0 mi East 9.2 mph - N/A   Overcast
3:08 PM 30.2 °F 25.4 °F 23.0 °F 75% 30.22 in 10.0 mi East 4.6 mph - N/A   Overcast
3:34 PM 30.2 °F 23.4 °F 23.0 °F 75% 30.21 in 10.0 mi East 6.9 mph - N/A   Overcast
3:53 PM 30.9 °F 25.2 °F 23.0 °F 72% 30.25 in 10.0 mi Variable 5.8 mph - N/A   Overcast
4:53 PM 30.9 °F 24.3 °F 23.0 °F 72% 30.22 in 10.0 mi ENE 6.9 mph - N/A   Overcast
5:31 PM 30.2 °F 21.9 °F 24.8 °F 80% 30.17 in 10.0 mi East 9.2 mph - N/A   Overcast
5:53 PM 30.9 °F 23.5 °F 24.1 °F 76% 30.19 in 10.0 mi East 8.1 mph - N/A   Overcast
6:53 PM 32.0 °F 26.4 °F 25.0 °F 75% 30.18 in 10.0 mi East 5.8 mph - N/A   Overcast
7:53 PM 34.0 °F 26.6 °F 27.0 °F 75% 30.15 in 10.0 mi SE 9.2 mph - N/A   Overcast
8:53 PM 34.0 °F 28.8 °F 30.0 °F 85% 30.16 in 10.0 mi ESE 5.8 mph - N/A   Overcast
9:53 PM 35.1 °F 31.0 °F 32.0 °F 89% 30.13 in 10.0 mi ESE 4.6 mph - N/A   Overcast
10:53 PM 37.0 °F 30.4 °F 33.1 °F 86% 30.12 in 10.0 mi SE 9.2 mph - N/A   Overcast
11:04 PM 37.4 °F 30.8 °F 33.8 °F 87% 30.07 in 10.0 mi SE 9.2 mph - N/A   Overcast
11:53 PM 37.0 °F 30.4 °F 35.1 °F 93% 30.09 in 4.0 mi SE 9.2 mph - 0.00 in Rain Light Rain